Location: *
(47.7167°N, 1.7333°W)
Time: 23:01:29
(UTC+00:00)

STARLINK-1269 - Pass Details

Date: 09 April 2020
Orbit: 549 x 550 km, 53.0° (Epoch: 24 May)

Event Time Altitude Azimuth Distance (km) Brightness Sun altitude
Rises 19:38:26 0° 294° (WNW) 2,724 9.7 -8.8°
Reaches altitude 10° 19:40:43 10° 299° (WNW) 1,829 7.9 -9.1°
Maximum altitude 19:44:47 52° 17° (NNE) 690 4.2 -9.8°
Enters shadow 19:48:24 13° 93° (E) 1,654 5.5 -10.3°
